| time (UTC) | temp F | wind direction | speed MPH | gust MPH | rain 1hr in | rain 24hr in | rain mn in | humidity % | barometer mb |
| 20260904152005 | 86 | 294 | 1.0 | 6.0 | 0.00 | 0.01 | 0.01 | 1 | 1014.8 |
| 20260904151505 | 85 | 171 | 2.0 | 9.0 | 0.00 | 0.01 | 0.01 | 1 | 1014.8 |
| 20260904151004 | 85 | 191 | 3.0 | 10.0 | 0.00 | 0.01 | 0.01 | 1 | 1014.9 |
| 20260904150505 | 84 | 173 | 3.0 | 10.0 | 0.00 | 0.01 | 0.01 | 1 | 1014.9 |
| 20260904150004 | 83 | 200 | 2.0 | 11.0 | 0.00 | 0.01 | 0.01 | 1 | 1014.8 |
| 20260904145509 | 82 | 192 | 2.0 | 8.0 | 0.00 | 0.01 | 0.01 | 1 | 1014.7 |
| 20260904145505 | 82 | 190 | 3.0 | 11.0 | 0.00 | 0.01 | 0.01 | 1 | 1014.8 |
| 20260904144502 | 81 | 155 | 2.0 | 6.0 | 0.00 | 0.01 | 0.01 | 1 | 1014.7 |
| 20260904144002 | 80 | 219 | 2.0 | 5.0 | 0.00 | 0.01 | 0.01 | 1 | 1014.7 |
| 20260904143506 | 80 | 193 | 3.0 | 6.0 | 0.00 | 0.01 | 0.01 | 1 | 1014.6 |
| 20260904143502 | 80 | 226 | 3.0 | 6.0 | 0.00 | 0.01 | 0.01 | 1 | 1014.7 |
| 20260904142505 | 79 | 168 | 3.0 | 6.0 | 0.00 | 0.01 | 0.01 | 1 | 1014.7 |
| 20260904142500 | 79 | 203 | 3.0 | 6.0 | 0.00 | 0.01 | 0.01 | 1 | 1014.6 |
| 20260904141507 | 79 | 161 | 2.0 | 8.0 | 0.00 | 0.01 | 0.01 | 1 | 1014.7 |
| 20260904141503 | 78 | 132 | 2.0 | 8.0 | 0.00 | 0.01 | 0.01 | 1 | 1014.7 |
| 20260904140500 | 79 | 169 | 2.0 | 5.0 | 0.00 | 0.01 | 0.01 | 1 | 1014.6 |
| 20260904140001 | 79 | 196 | 2.0 | 5.0 | 0.00 | 0.01 | 0.01 | 1 | 1014.6 |
| 20260904135956 | 79 | 161 | 2.0 | 5.0 | 0.00 | 0.01 | 0.01 | 1 | 1014.6 |
| 20260904134956 | 78 | 155 | 2.0 | 5.0 | 0.00 | 0.01 | 0.01 | 1 | 1014.5 |
| 20260904134457 | 78 | 204 | 2.0 | 6.0 | 0.00 | 0.01 | 0.01 | 1 | 1014.5 |
| 20260904133957 | 78 | 173 | 2.0 | 7.0 | 0.00 | 0.01 | 0.01 | 1 | 1014.4 |
| 20260904133455 | 79 | 130 | 2.0 | 7.0 | 0.00 | 0.01 | 0.01 | 1 | 1014.3 |
| 20260904132954 | 79 | 206 | 2.0 | 6.0 | 0.00 | 0.01 | 0.01 | 1 | 1014.3 |
| 20260904132451 | 79 | 182 | 2.0 | 6.0 | 0.00 | 0.01 | 0.01 | 1 | 1014.4 |
| 20260904131950 | 79 | 179 | 1.0 | 6.0 | 0.00 | 0.01 | 0.01 | 1 | 1014.3 |
| 20260904131449 | 79 | 189 | 1.0 | 6.0 | 0.00 | 0.01 | 0.01 | 1 | 1014.3 |
| 20260904130950 | 79 | 182 | 1.0 | 4.0 | 0.00 | 0.01 | 0.01 | 1 | 1014.2 |
| 20260904130448 | 79 | 175 | 1.0 | 4.0 | 0.00 | 0.01 | 0.01 | 1 | 1014.2 |
| 20260904125947 | 79 | 157 | 1.0 | 4.0 | 0.00 | 0.01 | 0.01 | 1 | 1014.1 |
| 20260904125448 | 79 | 176 | 1.0 | 4.0 | 0.00 | 0.01 | 0.01 | 1 | 1013.9 |
| 20260904125444 | 79 | 177 | 1.0 | 3.0 | 0.00 | 0.01 | 0.01 | 1 | 1014.0 |
| 20260904125047 | 79 | 180 | 1.0 | 3.0 | 0.00 | 0.01 | 0.01 | 1 | 1013.9 |
| 20260904123941 | 79 | 177 | 1.0 | 4.0 | 0.00 | 0.01 | 0.01 | 1 | 1013.7 |
| 20260904123437 | 79 | 163 | 0.0 | 4.0 | 0.00 | 0.01 | 0.01 | 1 | 1013.6 |
| 20260904122935 | 79 | 174 | 0.0 | 1.0 | 0.00 | 0.01 | 0.01 | 1 | 1013.6 |
| 20260904122434 | 79 | 191 | 0.0 | 2.0 | 0.00 | 0.01 | 0.01 | 1 | 1013.6 |
| 20260904121938 | 79 | 191 | 1.0 | 4.0 | 0.00 | 0.01 | 0.01 | 1 | 1013.4 |
| 20260904121934 | 79 | 190 | 1.0 | 4.0 | 0.00 | 0.01 | 0.01 | 1 | 1013.4 |
| 20260904121539 | 79 | 160 | 2.0 | 6.0 | 0.00 | 0.01 | 0.01 | 1 | 1013.3 |
| 20260904121039 | 79 | 154 | 2.0 | 6.0 | 0.01 | 0.01 | 0.01 | 1 | 1013.2 |
| 20260904115934 | 79 | 153 | 2.0 | 5.0 | 0.01 | 0.01 | 0.01 | 1 | 1013.2 |
| 20260904115433 | 79 | 169 | 2.0 | 9.0 | 0.01 | 0.01 | 0.01 | 1 | 1013.1 |
| 20260904114932 | 79 | 188 | 2.0 | 9.0 | 0.01 | 0.01 | 0.01 | 1 | 1013.1 |
| 20260904114432 | 79 | 159 | 2.0 | 5.0 | 0.01 | 0.01 | 0.01 | 1 | 1013.0 |
| 20260904113934 | 79 | 193 | 2.0 | 8.0 | 0.01 | 0.01 | 0.01 | 1 | 1013.0 |
| 20260904113432 | 80 | 173 | 2.0 | 8.0 | 0.01 | 0.01 | 0.01 | 1 | 1013.0 |
| 20260904112930 | 80 | 165 | 2.0 | 5.0 | 0.01 | 0.01 | 0.01 | 1 | 1013.0 |
| 20260904112434 | 80 | 169 | 2.0 | 4.0 | 0.01 | 0.01 | 0.01 | 1 | 1013.1 |
| 20260904112430 | 80 | 171 | 1.0 | 4.0 | 0.01 | 0.01 | 0.01 | 1 | 1013.0 |
| 20260904111431 | 80 | 159 | 2.0 | 6.0 | 0.01 | 0.01 | 0.01 | 1 | 1012.9 |
| 20260904111427 | 80 | 163 | 3.0 | 6.0 | 0.01 | 0.01 | 0.01 | 1 | 1013.0 |
| 20260904110422 | 80 | 167 | 3.0 | 7.0 | 0.00 | 0.00 | 0.00 | 1 | 1013.0 |
| 20260904110027 | 80 | 169 | 2.0 | 10.0 | 0.00 | 0.00 | 0.00 | 1 | 1012.8 |
| 20260904105924 | 80 | 164 | 2.0 | 10.0 | 0.00 | 0.00 | 0.00 | 1 | 1012.9 |
| 20260904105920 | 80 | 167 | 2.0 | 7.0 | 0.00 | 0.00 | 0.00 | 1 | 1012.9 |
| 20260904104423 | 80 | 175 | 3.0 | 6.0 | 0.00 | 0.00 | 0.00 | 1 | 1012.9 |
| 20260904104419 | 80 | 190 | 2.0 | 8.0 | 0.00 | 0.00 | 0.00 | 1 | 1012.9 |
| 20260904103418 | 80 | 128 | 3.0 | 6.0 | 0.00 | 0.00 | 0.00 | 1 | 1013.0 |
| 20260904102917 | 80 | 214 | 3.0 | 6.0 | 0.00 | 0.00 | 0.00 | 1 | 1013.0 |
| 20260904102418 | 80 | 171 | 2.0 | 6.0 | 0.00 | 0.00 | 0.00 | 1 | 1012.9 |
| 20260904101918 | 80 | 186 | 3.0 | 9.0 | 0.00 | 0.00 | 0.00 | 1 | 1012.9 |
| 20260904101416 | 80 | 202 | 3.0 | 9.0 | 0.00 | 0.00 | 0.00 | 1 | 1012.8 |
| 20260904100916 | 80 | 175 | 3.0 | 9.0 | 0.00 | 0.00 | 0.00 | 1 | 1012.7 |
| 20260904100420 | 80 | 146 | 3.0 | 10.0 | 0.00 | 0.00 | 0.00 | 1 | 1012.6 |
| 20260904100416 | 80 | 155 | 3.0 | 8.0 | 0.00 | 0.00 | 0.00 | 1 | 1012.7 |
| 20260904095414 | 80 | 192 | 4.0 | 11.0 | 0.00 | 0.00 | 0.00 | 1 | 1012.5 |
| 20260904094914 | 80 | 226 | 4.0 | 11.0 | 0.00 | 0.00 | 0.00 | 1 | 1012.5 |
| 20260904094412 | 80 | 156 | 3.0 | 8.0 | 0.00 | 0.00 | 0.00 | 1 | 1012.5 |
| 20260904093914 | 80 | 196 | 3.0 | 8.0 | 0.00 | 0.00 | 0.00 | 1 | 1012.6 |
| 20260904093409 | 80 | 178 | 2.0 | 8.0 | 0.00 | 0.00 | 0.00 | 1 | 1012.6 |
| 20260904092909 | 80 | 211 | 1.0 | 8.0 | 0.00 | 0.00 | 0.00 | 1 | 1012.7 |
| 20260904092409 | 80 | 201 | 2.0 | 8.0 | 0.00 | 0.00 | 0.00 | 1 | 1012.7 |
| 20260904091909 | 80 | 207 | 3.0 | 8.0 | 0.00 | 0.00 | 0.00 | 1 | 1012.7 |
| 20260904091408 | 80 | 191 | 3.0 | 8.0 | 0.00 | 0.00 | 0.00 | 1 | 1012.6 |
| 20260904090906 | 80 | 190 | 2.0 | 8.0 | 0.00 | 0.00 | 0.00 | 1 | 1012.7 |
| 20260904090406 | 80 | 157 | 2.0 | 7.0 | 0.00 | 0.00 | 0.00 | 1 | 1012.6 |
| 20260904085905 | 80 | 141 | 2.0 | 7.0 | 0.00 | 0.00 | 0.00 | 1 | 1012.7 |
| 20260904085401 | 80 | 175 | 2.0 | 7.0 | 0.00 | 0.00 | 0.00 | 1 | 1012.7 |
| 20260904084905 | 80 | 146 | 2.0 | 7.0 | 0.00 | 0.00 | 0.00 | 1 | 1012.7 |
| 20260904084901 | 80 | 204 | 2.0 | 7.0 | 0.00 | 0.00 | 0.00 | 1 | 1012.7 |
| 20260904083902 | 80 | 155 | 2.0 | 7.0 | 0.00 | 0.00 | 0.00 | 1 | 1012.6 |
| 20260904083402 | 80 | 171 | 2.0 | 7.0 | 0.00 | 0.00 | 0.00 | 1 | 1012.6 |
| 20260904082902 | 80 | 135 | 3.0 | 8.0 | 0.00 | 0.00 | 0.00 | 1 | 1012.6 |
| 20260904082400 | 80 | 185 | 3.0 | 8.0 | 0.00 | 0.00 | 0.00 | 1 | 1012.6 |
| 20260904081859 | 80 | 139 | 2.0 | 7.0 | 0.00 | 0.00 | 0.00 | 1 | 1012.6 |
| 20260904081358 | 80 | 207 | 2.0 | 5.0 | 0.00 | 0.00 | 0.00 | 1 | 1012.6 |
| 20260904080901 | 80 | 144 | 2.0 | 5.0 | 0.00 | 0.00 | 0.00 | 1 | 1012.8 |
| 20260904080857 | 80 | 164 | 2.0 | 7.0 | 0.00 | 0.00 | 0.00 | 1 | 1012.7 |
| 20260904075853 | 80 | 157 | 3.0 | 7.0 | 0.00 | 0.00 | 0.00 | 1 | 1012.7 |
| 20260904075354 | 80 | 192 | 3.0 | 8.0 | 0.00 | 0.00 | 0.00 | 1 | 1012.8 |
| 20260904074857 | 80 | 188 | 2.0 | 8.0 | 0.00 | 0.00 | 0.00 | 1 | 1012.8 |
| 20260904074852 | 80 | 211 | 2.0 | 6.0 | 0.00 | 0.00 | 0.00 | 1 | 1012.7 |
| 20260904074456 | 80 | 157 | 2.0 | 6.0 | 0.00 | 0.00 | 0.00 | 1 | 1012.7 |
| 20260904073359 | 80 | 155 | 2.0 | 6.0 | 0.00 | 0.00 | 0.00 | 1 | 1012.7 |
| 20260904073353 | 80 | 208 | 2.0 | 6.0 | 0.00 | 0.00 | 0.00 | 1 | 1012.7 |
| 20260904072351 | 80 | 160 | 2.0 | 6.0 | 0.00 | 0.00 | 0.00 | 1 | 1012.7 |
| 20260904071850 | 80 | 184 | 2.0 | 7.0 | 0.00 | 0.00 | 0.00 | 1 | 1012.8 |
| 20260904071350 | 80 | 134 | 3.0 | 8.0 | 0.00 | 0.00 | 0.00 | 1 | 1012.8 |
| 20260904070849 | 80 | 190 | 4.0 | 9.0 | 0.00 | 0.00 | 0.00 | 1 | 1012.8 |
| 20260904070349 | 80 | 141 | 4.0 | 9.0 | 0.00 | 0.00 | 0.00 | 1 | 1012.7 |
| 20260904065847 | 80 | 194 | 3.0 | 9.0 | 0.00 | 0.00 | 0.00 | 1 | 1012.8 |
| 20260904065347 | 80 | 181 | 3.0 | 9.0 | 0.00 | 0.00 | 0.00 | 1 | 1012.8 |
| 20260904064845 | 80 | 156 | 3.0 | 9.0 | 0.00 | 0.00 | 0.00 | 1 | 1012.8 |
| 20260904064348 | 79 | 159 | 2.0 | 10.0 | 0.00 | 0.00 | 0.00 | 1 | 1013.0 |
| 20260904064344 | 80 | 173 | 2.0 | 10.0 | 0.00 | 0.00 | 0.00 | 1 | 1012.9 |
| 20260904063344 | 79 | 139 | 1.0 | 6.0 | 0.00 | 0.00 | 0.00 | 1 | 1013.0 |
| 20260904062847 | 79 | 196 | 1.0 | 6.0 | 0.00 | 0.00 | 0.00 | 1 | 1012.9 |
| 20260904062843 | 79 | 230 | 1.0 | 6.0 | 0.00 | 0.00 | 0.00 | 1 | 1013.0 |
| 20260904061843 | 79 | 104 | 1.0 | 5.0 | 0.00 | 0.00 | 0.00 | 1 | 1012.9 |
| 20260904061343 | 79 | 169 | 2.0 | 5.0 | 0.00 | 0.00 | 0.00 | 1 | 1012.9 |
| 20260904060843 | 79 | 156 | 2.0 | 6.0 | 0.00 | 0.00 | 0.00 | 1 | 1012.9 |
| 20260904060344 | 79 | 150 | 2.0 | 6.0 | 0.00 | 0.00 | 0.00 | 1 | 1012.9 |
| 20260904055848 | 79 | 182 | 1.0 | 5.0 | 0.00 | 0.00 | 0.00 | 1 | 1013.0 |
| 20260904055844 | 79 | 119 | 1.0 | 4.0 | 0.00 | 0.00 | 0.00 | 1 | 1012.9 |
| 20260904054843 | 79 | 183 | 1.0 | 5.0 | 0.00 | 0.00 | 0.00 | 1 | 1013.1 |
| 20260904054343 | 79 | 116 | 0.0 | 3.0 | 0.00 | 0.00 | 0.00 | 1 | 1013.0 |
| 20260904053844 | 79 | 155 | 0.0 | 3.0 | 0.00 | 0.00 | 0.00 | 1 | 1012.9 |
| 20260904053342 | 79 | 142 | 1.0 | 3.0 | 0.00 | 0.00 | 0.00 | 1 | 1012.9 |
| 20260904052842 | 79 | 150 | 0.0 | 2.0 | 0.00 | 0.00 | 0.00 | 1 | 1013.0 |
| 20260904052341 | 79 | 115 | 0.0 | 2.0 | 0.00 | 0.00 | 0.00 | 1 | 1013.0 |
| 20260904051839 | 79 | 148 | 1.0 | 4.0 | 0.00 | 0.00 | 0.00 | 1 | 1012.9 |
| 20260904051339 | 79 | 169 | 1.0 | 4.0 | 0.00 | 0.00 | 0.00 | 1 | 1012.9 |
| 20260904050840 | 79 | 126 | 1.0 | 4.0 | 0.00 | 0.00 | 0.00 | 1 | 1012.8 |
| 20260904050338 | 79 | 118 | 1.0 | 4.0 | 0.00 | 0.00 | 0.00 | 1 | 1012.9 |
| 20260904045841 | 79 | 131 | 1.0 | 3.0 | 0.00 | 0.00 | 0.00 | 1 | 1012.9 |
| 20260904045837 | 79 | 171 | 1.0 | 4.0 | 0.00 | 0.00 | 0.00 | 1 | 1012.9 |
| 20260904044837 | 79 | 180 | 0.0 | 2.0 | 0.00 | 0.00 | 0.00 | 1 | 1013.0 |
| 20260904044340 | 79 | 165 | 1.0 | 3.0 | 0.00 | 0.00 | 0.00 | 1 | 1013.0 |
| 20260904044336 | 79 | 165 | 0.0 | 3.0 | 0.00 | 0.00 | 0.00 | 1 | 1013.0 |
| 20260904043336 | 79 | 105 | 0.0 | 2.0 | 0.00 | 0.00 | 0.00 | 1 | 1012.9 |
| 20260904042837 | 79 | 49 | 0.0 | 2.0 | 0.00 | 0.00 | 0.00 | 1 | 1012.8 |
| 20260904042337 | 79 | 69 | 0.0 | 4.0 | 0.00 | 0.00 | 0.00 | 1 | 1012.9 |
| 20260904041836 | 79 | 151 | 1.0 | 4.0 | 0.00 | 0.00 | 0.00 | 1 | 1012.9 |
| 20260904041337 | 79 | 134 | 0.0 | 3.0 | 0.00 | 0.00 | 0.00 | 1 | 1012.9 |
| 20260904040837 | 79 | 157 | 1.0 | 3.0 | 0.00 | 0.00 | 0.00 | 1 | 1012.8 |
| 20260904040337 | 80 | 139 | 1.0 | 2.0 | 0.00 | 0.00 | 0.00 | 1 | 1012.8 |
| 20260904035837 | 80 | 101 | 1.0 | 3.0 | 0.00 | 0.00 | 0.00 | 1 | 1012.7 |
| 20260904035337 | 80 | 121 | 0.0 | 3.0 | 0.00 | 0.00 | 0.00 | 1 | 1012.7 |
| 20260904034836 | 80 | 154 | 1.0 | 3.0 | 0.00 | 0.00 | 0.00 | 1 | 1012.6 |
| 20260904034341 | 80 | 145 | 1.0 | 3.0 | 0.00 | 0.00 | 0.00 | 1 | 1012.8 |
| 20260904034337 | 80 | 126 | 1.0 | 3.0 | 0.00 | 0.00 | 0.00 | 1 | 1012.7 |
| 20260904033336 | 80 | 215 | 1.0 | 3.0 | 0.00 | 0.00 | 0.00 | 1 | 1012.8 |
| 20260904032836 | 80 | 139 | 1.0 | 3.0 | 0.00 | 0.00 | 0.00 | 1 | 1012.9 |
| 20260904032341 | 81 | 106 | 1.0 | 4.0 | 0.00 | 0.00 | 0.00 | 1 | 1012.7 |
| 20260904032337 | 81 | 138 | 1.0 | 4.0 | 0.00 | 0.00 | 0.00 | 1 | 1012.8 |
| 20260904031335 | 81 | 112 | 1.0 | 4.0 | 0.00 | 0.00 | 0.00 | 1 | 1012.7 |
| 20260904030840 | 82 | 142 | 1.0 | 3.0 | 0.00 | 0.00 | 0.00 | 1 | 1012.5 |
| 20260904030836 | 82 | 174 | 1.0 | 4.0 | 0.00 | 0.00 | 0.00 | 1 | 1012.6 |
| 20260904030440 | 82 | 134 | 1.0 | 3.0 | 0.00 | 0.00 | 0.00 | 1 | 1012.5 |
| 20260904025334 | 82 | 102 | 1.0 | 3.0 | 0.00 | 0.00 | 0.00 | 1 | 1012.5 |
| 20260904024834 | 83 | 132 | 0.0 | 2.0 | 0.00 | 0.00 | 0.00 | 1 | 1012.5 |
| 20260904024334 | 83 | 136 | 0.0 | 2.0 | 0.00 | 0.00 | 0.00 | 1 | 1012.4 |
| 20260904023835 | 83 | 142 | 0.0 | 2.0 | 0.00 | 0.00 | 0.00 | 1 | 1012.3 |
| 20260904023333 | 83 | 142 | 1.0 | 3.0 | 0.00 | 0.00 | 0.00 | 1 | 1012.2 |
| 20260904022835 | 83 | 155 | 1.0 | 4.0 | 0.00 | 0.00 | 0.00 | 1 | 1012.1 |
| 20260904022331 | 83 | 148 | 1.0 | 4.0 | 0.00 | 0.00 | 0.00 | 1 | 1012.0 |
| 20260904021828 | 83 | 136 | 1.0 | 4.0 | 0.00 | 0.00 | 0.00 | 1 | 1012.1 |
| 20260904021329 | 84 | 157 | 1.0 | 3.0 | 0.00 | 0.00 | 0.00 | 1 | 1012.0 |
| 20260904020828 | 84 | 106 | 1.0 | 3.0 | 0.00 | 0.00 | 0.00 | 1 | 1011.9 |
| 20260904020333 | 84 | 182 | 1.0 | 4.0 | 0.00 | 0.00 | 0.00 | 1 | 1011.7 |
| 20260904020329 | 84 | 140 | 1.0 | 4.0 | 0.00 | 0.00 | 0.00 | 1 | 1011.8 |
| 20260904015332 | 84 | 159 | 1.0 | 4.0 | 0.00 | 0.00 | 0.00 | 1 | 1011.5 |
| 20260904015328 | 84 | 159 | 1.0 | 4.0 | 0.00 | 0.00 | 0.00 | 1 | 1011.6 |
| 20260904014326 | 84 | 171 | 1.0 | 5.0 | 0.00 | 0.00 | 0.00 | 1 | 1011.4 |
| 20260904013825 | 84 | 134 | 1.0 | 5.0 | 0.00 | 0.00 | 0.00 | 1 | 1011.4 |
| 20260904013324 | 85 | 145 | 2.0 | 5.0 | 0.00 | 0.00 | 0.00 | 1 | 1011.4 |
| 20260904012824 | 85 | 157 | 2.0 | 6.0 | 0.00 | 0.00 | 0.00 | 1 | 1011.3 |
| 20260904012323 | 85 | 181 | 2.0 | 7.0 | 0.00 | 0.00 | 0.00 | 1 | 1011.1 |
| 20260904011823 | 85 | 131 | 2.0 | 7.0 | 0.00 | 0.00 | 0.00 | 1 | 1011.1 |
| 20260904011321 | 85 | 157 | 2.0 | 6.0 | 0.00 | 0.00 | 0.00 | 1 | 1011.1 |
| 20260904010819 | 85 | 125 | 2.0 | 6.0 | 0.00 | 0.00 | 0.00 | 1 | 1011.1 |
| 20260904010319 | 85 | 157 | 2.0 | 6.0 | 0.00 | 0.00 | 0.00 | 1 | 1011.0 |
| 20260904005819 | 85 | 178 | 2.0 | 10.0 | 0.00 | 0.00 | 0.00 | 1 | 1011.1 |
| 20260904005317 | 85 | 159 | 2.0 | 10.0 | 0.00 | 0.00 | 0.00 | 1 | 1011.1 |
| 20260904004818 | 85 | 112 | 2.0 | 6.0 | 0.00 | 0.00 | 0.00 | 1 | 1011.2 |
| 20260904004319 | 85 | 116 | 2.0 | 7.0 | 0.00 | 0.00 | 0.00 | 1 | 1011.2 |
| 20260904003818 | 86 | 136 | 2.0 | 8.0 | 0.00 | 0.00 | 0.00 | 1 | 1011.3 |
| 20260904003318 | 86 | 74 | 2.0 | 8.0 | 0.00 | 0.00 | 0.00 | 1 | 1011.2 |
| 20260904002823 | 86 | 146 | 3.0 | 9.0 | 0.00 | 0.00 | 0.00 | 1 | 1011.1 |
| 20260904002819 | 86 | 141 | 3.0 | 7.0 | 0.00 | 0.00 | 0.00 | 1 | 1011.2 |
| 20260904001816 | 86 | 197 | 3.0 | 9.0 | 0.00 | 0.00 | 0.00 | 1 | 1011.1 |
| 20260904001313 | 86 | 120 | 3.0 | 12.0 | 0.00 | 0.00 | 0.00 | 1 | 1011.2 |
| 20260904000811 | 86 | 172 | 3.0 | 12.0 | 0.00 | 0.00 | 0.00 | 1 | 1011.1 |
| 20260904000312 | 86 | 130 | 3.0 | 10.0 | 0.00 | 0.00 | 0.00 | 1 | 1011.1 |
| 20260903235816 | 87 | 118 | 3.0 | 12.0 | 0.00 | 0.00 | 0.00 | 1 | 1011.0 |
| 20260903235812 | 86 | 143 | 3.0 | 12.0 | 0.00 | 0.00 | 0.00 | 1 | 1011.1 |
| 20260903234811 | 87 | 161 | 3.0 | 12.0 | 0.00 | 0.00 | 0.00 | 1 | 1011.1 |
| 20260903234312 | 87 | 101 | 4.0 | 12.0 | 0.00 | 0.00 | 0.00 | 1 | 1011.1 |
| 20260903233812 | 87 | 101 | 3.0 | 11.0 | 0.00 | 0.00 | 0.00 | 1 | 1011.0 |
| 20260903233312 | 87 | 107 | 3.0 | 11.0 | 0.00 | 0.00 | 0.00 | 1 | 1011.1 |
| 20260903232812 | 88 | 94 | 4.0 | 11.0 | 0.00 | 0.00 | 0.00 | 1 | 1010.9 |
| 20260903232312 | 88 | 88 | 3.0 | 8.0 | 0.00 | 0.00 | 0.00 | 1 | 1010.9 |
| 20260903231810 | 89 | 97 | 3.0 | 7.0 | 0.00 | 0.00 | 0.00 | 1 | 1010.9 |
| 20260903231310 | 89 | 99 | 3.0 | 11.0 | 0.00 | 0.00 | 0.00 | 7 | 1010.8 |
| 20260903230810 | 89 | 78 | 3.0 | 11.0 | 0.00 | 0.00 | 0.00 | 14 | 1010.7 |
| 20260903230310 | 90 | 63 | 3.0 | 10.0 | 0.00 | 0.00 | 0.00 | 19 | 1010.8 |
| 20260903225806 | 90 | 44 | 3.0 | 8.0 | 0.00 | 0.00 | 0.00 | 21 | 1010.8 |
| 20260903225307 | 91 | 150 | 3.0 | 8.0 | 0.00 | 0.00 | 0.00 | 22 | 1010.7 |
| 20260903224806 | 91 | 87 | 3.0 | 9.0 | 0.00 | 0.00 | 0.00 | 25 | 1010.7 |
| 20260903224301 | 91 | 175 | 3.0 | 9.0 | 0.00 | 0.00 | 0.00 | 26 | 1010.7 |
| 20260903223802 | 91 | 167 | 4.0 | 9.0 | 0.00 | 0.00 | 0.00 | 26 | 1010.7 |
| 20260903223300 | 91 | 110 | 4.0 | 12.0 | 0.00 | 0.00 | 0.00 | 25 | 1010.7 |
| 20260903222804 | 91 | 93 | 4.0 | 13.0 | 0.00 | 0.00 | 0.00 | 25 | 1010.8 |
| 20260903222759 | 91 | 113 | 4.0 | 12.0 | 0.00 | 0.00 | 0.00 | 25 | 1010.8 |
| 20260903221804 | 92 | 111 | 3.0 | 14.0 | 0.00 | 0.00 | 0.00 | 24 | 1010.7 |
| 20260903221800 | 92 | 221 | 4.0 | 13.0 | 0.00 | 0.00 | 0.00 | 24 | 1010.7 |
| 20260903220758 | 92 | 129 | 3.0 | 14.0 | 0.00 | 0.00 | 0.00 | 23 | 1010.7 |
| 20260903220258 | 92 | 146 | 4.0 | 12.0 | 0.00 | 0.00 | 0.00 | 23 | 1010.7 |
| 20260903215758 | 91 | 173 | 4.0 | 18.0 | 0.00 | 0.00 | 0.00 | 24 | 1010.6 |
| 20260903215258 | 92 | 148 | 4.0 | 18.0 | 0.00 | 0.00 | 0.00 | 24 | 1010.7 |
| 20260903214756 | 91 | 136 | 4.0 | 12.0 | 0.00 | 0.00 | 0.00 | 24 | 1010.7 |
| 20260903214255 | 92 | 171 | 5.0 | 11.0 | 0.00 | 0.00 | 0.00 | 24 | 1010.7 |
| 20260903213800 | 92 | 98 | 5.0 | 15.0 | 0.00 | 0.00 | 0.00 | 24 | 1010.7 |
| 20260903213756 | 92 | 175 | 5.0 | 14.0 | 0.00 | 0.00 | 0.00 | 24 | 1010.7 |
| 20260903212754 | 93 | 188 | 4.0 | 15.0 | 0.00 | 0.00 | 0.00 | 24 | 1010.7 |
| 20260903212253 | 93 | 167 | 5.0 | 15.0 | 0.00 | 0.00 | 0.00 | 24 | 1010.7 |
| 20260903211751 | 93 | 166 | 4.0 | 13.0 | 0.00 | 0.00 | 0.00 | 23 | 1010.8 |
| 20260903211252 | 93 | 161 | 5.0 | 13.0 | 0.00 | 0.00 | 0.00 | 23 | 1010.9 |
| 20260903210751 | 93 | 69 | 5.0 | 13.0 | 0.00 | 0.00 | 0.00 | 24 | 1011.0 |
| 20260903210252 | 94 | 187 | 4.0 | 9.0 | 0.00 | 0.00 | 0.00 | 23 | 1011.1 |
| 20260903205752 | 95 | 131 | 4.0 | 11.0 | 0.00 | 0.00 | 0.00 | 23 | 1011.2 |
| 20260903205251 | 95 | 130 | 4.0 | 11.0 | 0.00 | 0.00 | 0.00 | 22 | 1011.2 |
| 20260903204749 | 94 | 159 | 5.0 | 13.0 | 0.00 | 0.00 | 0.00 | 21 | 1011.1 |
| 20260903204246 | 94 | 199 | 5.0 | 15.0 | 0.00 | 0.00 | 0.00 | 21 | 1011.3 |
| 20260903203745 | 95 | 142 | 4.0 | 15.0 | 0.00 | 0.00 | 0.00 | 19 | 1011.3 |
| 20260903203244 | 94 | 138 | 5.0 | 11.0 | 0.00 | 0.00 | 0.00 | 17 | 1011.4 |
| 20260903202744 | 93 | 217 | 6.0 | 12.0 | 0.00 | 0.00 | 0.00 | 15 | 1011.4 |
| 20260903202243 | 93 | 136 | 5.0 | 12.0 | 0.00 | 0.00 | 0.00 | 14 | 1011.5 |
| 20260903201741 | 92 | 178 | 5.0 | 13.0 | 0.00 | 0.00 | 0.00 | 13 | 1011.5 |
| 20260903201242 | 92 | 153 | 6.0 | 14.0 | 0.00 | 0.00 | 0.00 | 12 | 1011.6 |
| 20260903200740 | 92 | 165 | 6.0 | 16.0 | 0.00 | 0.00 | 0.00 | 11 | 1011.6 |
| 20260903200240 | 92 | 151 | 6.0 | 16.0 | 0.00 | 0.00 | 0.00 | 11 | 1011.6 |
| 20260903195738 | 92 | 221 | 5.0 | 15.0 | 0.00 | 0.00 | 0.00 | 10 | 1011.9 |
| 20260903195237 | 92 | 112 | 4.0 | 16.0 | 0.00 | 0.00 | 0.00 | 8 | 1011.8 |
| 20260903194738 | 92 | 188 | 5.0 | 16.0 | 0.00 | 0.00 | 0.00 | 5 | 1011.9 |
| 20260903194237 | 92 | 176 | 5.0 | 15.0 | 0.00 | 0.00 | 0.00 | 6 | 1011.9 |
| 20260903193737 | 92 | 88 | 4.0 | 12.0 | 0.00 | 0.00 | 0.00 | 5 | 1012.0 |
| 20260903193241 | 92 | 87 | 3.0 | 10.0 | 0.00 | 0.00 | 0.00 | 1 | 1012.2 |
| 20260903193237 | 92 | 153 | 3.0 | 12.0 | 0.00 | 0.00 | 0.00 | 5 | 1012.2 |
| 20260903192237 | 91 | 161 | 3.0 | 10.0 | 0.00 | 0.00 | 0.00 | 1 | 1012.3 |
| 20260903191738 | 90 | 134 | 3.0 | 10.0 | 0.00 | 0.00 | 0.00 | 1 | 1012.4 |
| 20260903191242 | 89 | 97 | 3.0 | 7.0 | 0.00 | 0.00 | 0.00 | 1 | 1012.7 |
| 20260903191238 | 89 | 142 | 3.0 | 10.0 | 0.00 | 0.00 | 0.00 | 1 | 1012.5 |
| 20260903190236 | 89 | 185 | 3.0 | 7.0 | 0.00 | 0.00 | 0.00 | 1 | 1012.9 |
| 20260903185735 | 88 | 97 | 3.0 | 10.0 | 0.00 | 0.00 | 0.00 | 1 | 1012.9 |
| 20260903185235 | 87 | 93 | 4.0 | 10.0 | 0.00 | 0.00 | 0.00 | 1 | 1013.1 |
| 20260903184735 | 87 | 145 | 4.0 | 12.0 | 0.00 | 0.00 | 0.00 | 1 | 1013.2 |
| 20260903184234 | 87 | 150 | 5.0 | 12.0 | 0.00 | 0.00 | 0.00 | 1 | 1013.3 |
| 20260903183733 | 87 | 136 | 5.0 | 12.0 | 0.00 | 0.00 | 0.00 | 1 | 1013.3 |
| 20260903183235 | 87 | 190 | 3.0 | 10.0 | 0.00 | 0.00 | 0.00 | 1 | 1013.3 |
| 20260903183231 | 87 | 59 | 3.0 | 11.0 | 0.00 | 0.00 | 0.00 | 1 | 1013.4 |
| 20260903182231 | 87 | 57 | 4.0 | 15.0 | 0.00 | 0.00 | 0.00 | 1 | 1013.4 |
| 20260903181731 | 87 | 130 | 4.0 | 15.0 | 0.00 | 0.00 | 0.00 | 1 | 1013.5 |
| 20260903181231 | 86 | 227 | 4.0 | 10.0 | 0.00 | 0.00 | 0.00 | 1 | 1013.5 |
| 20260903180731 | 86 | 106 | 3.0 | 10.0 | 0.00 | 0.00 | 0.00 | 1 | 1013.6 |
| 20260903180231 | 86 | 129 | 3.0 | 10.0 | 0.00 | 0.00 | 0.00 | 1 | 1013.7 |
| 20260903175731 | 86 | 102 | 3.0 | 10.0 | 0.00 | 0.00 | 0.00 | 1 | 1013.9 |
| 20260903175229 | 87 | 132 | 4.0 | 10.0 | 0.00 | 0.00 | 0.00 | 1 | 1013.9 |
| 20260903174729 | 86 | 85 | 4.0 | 10.0 | 0.00 | 0.00 | 0.00 | 1 | 1014.0 |
| 20260903174230 | 86 | 134 | 4.0 | 8.0 | 0.00 | 0.00 | 0.00 | 1 | 1014.1 |
| 20260903173729 | 85 | 120 | 3.0 | 8.0 | 0.00 | 0.00 | 0.00 | 1 | 1014.2 |
| 20260903173229 | 85 | 114 | 2.0 | 8.0 | 0.00 | 0.00 | 0.00 | 1 | 1014.2 |
| 20260903172729 | 85 | 134 | 3.0 | 8.0 | 0.00 | 0.00 | 0.00 | 1 | 1014.4 |
| 20260903172227 | 85 | 96 | 3.0 | 9.0 | 0.00 | 0.00 | 0.00 | 1 | 1014.4 |
| 20260903171727 | 86 | 113 | 2.0 | 9.0 | 0.00 | 0.00 | 0.00 | 1 | 1014.4 |
| 20260903171227 | 86 | 184 | 2.0 | 8.0 | 0.00 | 0.00 | 0.00 | 1 | 1014.4 |
| 20260903170726 | 86 | 90 | 3.0 | 7.0 | 0.00 | 0.00 | 0.00 | 1 | 1014.5 |
| 20260903170224 | 86 | 166 | 3.0 | 8.0 | 0.00 | 0.00 | 0.00 | 1 | 1014.4 |
| 20260903165725 | 85 | 90 | 3.0 | 11.0 | 0.00 | 0.00 | 0.00 | 1 | 1014.4 |
| 20260903165329 | 85 | 146 | 3.0 | 8.0 | 0.00 | 0.00 | 0.00 | 1 | 1014.3 |
| 20260903165227 | 85 | 198 | 2.0 | 11.0 | 0.00 | 0.00 | 0.00 | 1 | 1014.4 |
| 20260903165223 | 85 | 96 | 2.0 | 7.0 | 0.00 | 0.00 | 0.00 | 1 | 1014.3 |
| 20260903163721 | 84 | 95 | 3.0 | 10.0 | 0.00 | 0.00 | 0.00 | 1 | 1014.2 |
| 20260903163226 | 84 | 173 | 3.0 | 12.0 | 0.00 | 0.00 | 0.00 | 1 | 1014.2 |
| 20260903163221 | 84 | 173 | 4.0 | 12.0 | 0.00 | 0.00 | 0.00 | 1 | 1014.2 |
| 20260903162225 | 84 | 146 | 2.0 | 7.0 | 0.00 | 0.00 | 0.00 | 1 | 1014.1 |
| 20260903162221 | 84 | 151 | 3.0 | 10.0 | 0.00 | 0.00 | 0.00 | 1 | 1014.2 |
| 20260903161824 | 84 | 110 | 2.0 | 8.0 | 0.00 | 0.00 | 0.00 | 1 | 1014.2 |
| 20260903161324 | 84 | 117 | 3.0 | 7.0 | 0.00 | 0.00 | 0.00 | 1 | 1014.1 |
| 20260903160218 | 83 | 144 | 2.0 | 7.0 | 0.00 | 0.00 | 0.00 | 1 | 1014.0 |
| 20260903155719 | 83 | 85 | 3.0 | 9.0 | 0.00 | 0.00 | 0.00 | 1 | 1014.0 |
| 20260903155219 | 83 | 184 | 3.0 | 9.0 | 0.00 | 0.00 | 0.00 | 1 | 1014.0 |
| 20260903154719 | 83 | 163 | 2.0 | 7.0 | 0.00 | 0.00 | 0.00 | 1 | 1013.9 |
| 20260903154219 | 83 | 142 | 2.0 | 7.0 | 0.00 | 0.00 | 0.00 | 1 | 1013.9 |
| 20260903153717 | 83 | 117 | 2.0 | 7.0 | 0.00 | 0.00 | 0.00 | 1 | 1013.9 |
| 20260903153217 | 83 | 151 | 2.0 | 6.0 | 0.00 | 0.00 | 0.00 | 1 | 1013.7 |
| 20260903152716 | 83 | 112 | 2.0 | 6.0 | 0.00 | 0.00 | 0.00 | 1 | 1013.6 |
| 20260903152217 | 83 | 85 | 2.0 | 5.0 | 0.00 | 0.00 | 0.00 | 1 | 1013.6 |